Date and Time,30m Wind Direction,30m Wind Speed,30m Wind Vert,30m Quality,40m Wind Direction,40m Wind Speed,40m Wind Vert,40m Quality,50m Wind Direction,50m Wind Speed,50m Wind Vert,50m Quality,60m Wind Direction,60m Wind Speed,60m Wind Vert,60m Quality,80m Wind Direction,80m Wind Speed,80m Wind Vert,80m Quality,100m Wind Direction,100m Wind Speed,100m Wind Vert,100m Quality,120m Wind Direction,120m Wind Speed,120m Wind Vert,120m Quality,140m Wind Direction,140m Wind Speed,140m Wind Vert,140m Quality,160m Wind Direction,160m Wind Speed,160m Wind Vert,160m Quality,180m Wind Direction,180m Wind Speed,180m Wind Vert,180m Quality,200m Wind Direction,200m Wind Speed,200m Wind Vert,200m Quality,30m Wind Turbulence,40m Wind Turbulence,50m Wind Turbulence,60m Wind Turbulence,80m Wind Turbulence,100m Wind Turbulence,120m Wind Turbulence,140m Wind Turbulence,160m Wind Turbulence,180m Wind Turbulence,200m Wind Turbulence
8/7/2021 12:00 AM,199.2,8.13,0.04,98.0,196.4,8.43,0.04,98.0,199.1,9.09,-0.01,98.0,199.1,9.07,0.01,98.0,196.9,9.81,0.04,98.0,200.5,10.27,0.02,98.0,198.9,10.98,0.04,96.0,198.1,11.52,0.02,93.0,210.1,7.56,0.62,50.0,223.8,6.33,1.69,13.0,147.1,10.73,0.65,18.0,0.07,0.06,0.05,0.07,0.06,0.09,0.12,0.13,0.64,1.35,0.47
8/7/2021 12:10 AM,200.0,7.12,-0.02,98.0,198.2,7.6,0.03,99.0,202.0,7.75,0.0,97.0,200.7,8.26,0.0,98.0,199.5,8.72,0.04,97.0,202.1,9.14,-0.01,97.0,200.1,9.86,-0.04,98.0,198.7,10.86,0.0,96.0,201.1,10.47,-0.05,82.0,280.4,4.95,-0.62,20.0,255.6,27.94,1.49,21.0,0.07,0.06,0.06,0.05,0.04,0.05,0.08,0.04,0.26,0.74,0.27
8/7/2021 12:20 AM,196.8,7.28,0.08,98.0,196.1,7.82,0.07,99.0,200.3,8.12,-0.03,98.0,199.4,8.51,-0.02,98.0,200.5,9.26,0.02,98.0,198.9,9.89,-0.03,97.0,196.7,9.8,-0.01,97.0,198.8,10.83,-0.05,95.0,204.9,10.37,-0.3,53.0,207.3,1.44,-1.13,13.0,270.5,27.27,1.93,4.0,0.07,0.06,0.05,0.05,0.04,0.06,0.07,0.04,0.27,0.21,0.56
8/7/2021 12:30 AM,197.7,7.37,-0.02,98.0,196.0,8.33,0.0,98.0,197.7,8.7,0.0,99.0,199.0,9.14,-0.01,98.0,199.8,9.05,0.1,97.0,197.2,9.63,0.1,95.0,186.5,11.58,0.39,93.0,178.1,12.82,0.69,89.0,183.0,9.82,6.08,44.0,133.2,6.95,6.75,43.0,117.8,1.77,7.34,34.0,0.07,0.05,0.05,0.11,0.19,0.21,0.18,0.27,0.44,0.43,0.86
8/7/2021 12:40 AM,196.6,7.23,0.11,99.0,197.2,7.67,0.06,98.0,196.7,8.11,-0.01,97.0,197.7,8.57,-0.08,97.0,197.1,9.26,0.02,96.0,195.0,9.75,0.0,95.0,193.9,10.14,0.03,94.0,199.9,11.18,0.09,36.0,225.9,17.22,-2.75,2.0,316.1,40.84,1.7,3.0,340.2,30.15,2.06,2.0,0.08,0.07,0.09,0.08,0.11,0.06,0.11,0.42,1.33,0.37,0.28
8/7/2021 12:50 AM,190.6,6.67,0.07,99.0,192.0,7.46,0.04,99.0,191.5,7.81,0.08,98.0,192.1,7.96,0.02,97.0,193.5,8.83,0.03,96.0,193.7,9.09,0.1,94.0,194.7,10.14,-0.02,92.0,193.5,10.37,0.0,91.0,168.7,17.89,-0.45,22.0,148.5,50.73,0.16,1.0,127.8,48.97,-1.55,1.0,0.08,0.07,0.05,0.05,0.08,0.15,0.13,0.14,0.22,0.09,0.16
8/7/2021 1:00 AM,194.0,7.52,0.05,99.0,193.7,7.99,0.06,98.0,193.6,8.2,0.04,98.0,194.2,8.31,0.02,96.0,193.8,9.26,0.02,96.0,195.5,10.02,-0.02,94.0,195.2,10.3,0.05,92.0,192.5,10.58,0.0,79.0,165.1,23.78,-1.68,21.0,187.8,29.14,-0.4,2.0,205.9,43.44,2.2,5.0,0.07,0.06,0.06,0.1,0.07,0.11,0.11,0.23,0.44,0.67,0.12
8/7/2021 1:10 AM,193.7,7.4,0.13,98.0,193.3,8.09,0.14,99.0,194.8,8.41,0.09,98.0,196.8,8.56,0.06,98.0,195.8,10.15,0.02,96.0,195.2,10.33,0.13,94.0,189.5,11.47,-0.01,88.0,189.6,13.84,-0.09,48.0,138.1,21.81,-4.08,8.0,126.3,36.65,-3.73,9.0,130.7,26.75,-5.24,4.0,0.07,0.08,0.05,0.04,0.14,0.21,0.26,0.29,0.47,0.29,0.31
8/7/2021 1:20 AM,187.6,6.96,0.1,98.0,190.6,7.67,0.07,99.0,192.3,8.3,0.1,99.0,191.9,8.46,0.06,98.0,193.1,9.25,0.04,97.0,193.8,9.71,0.12,97.0,193.5,10.4,0.08,91.0,192.5,10.61,0.1,68.0,266.1,6.37,-6.16,6.0,,,,,196.9,35.68,0.36,1.0,0.06,0.05,0.05,0.04,0.04,0.09,0.14,0.26,0.59,,0.46
8/7/2021 1:30 AM,192.2,7.12,0.09,99.0,192.9,7.76,0.06,99.0,195.6,8.09,0.06,99.0,196.5,8.46,0.03,98.0,195.0,9.09,-0.02,97.0,192.9,11.11,-0.07,94.0,181.4,10.98,-0.56,86.0,190.6,10.21,-1.88,22.0,132.2,12.16,-5.88,2.0,112.5,16.77,-6.06,2.0,106.5,6.72,-7.41,13.0,0.06,0.06,0.05,0.05,0.12,0.15,0.27,0.56,0.29,0.56,0.39
8/7/2021 1:40 AM,200.3,7.09,-0.03,99.0,199.5,7.33,0.0,98.0,199.4,8.17,0.0,99.0,195.9,8.52,0.05,98.0,199.6,9.48,-0.08,97.0,204.7,9.39,-0.24,96.0,225.6,10.44,-1.36,87.0,259.5,6.15,-7.07,35.0,328.7,2.96,-7.15,32.0,307.8,8.6,-6.86,48.0,237.1,9.26,-6.73,36.0,0.06,0.06,0.11,0.11,0.17,0.21,0.36,0.66,0.64,0.5,0.91
8/7/2021 1:50 AM,187.0,5.83,0.08,99.0,188.8,6.13,0.09,98.0,188.5,7.05,0.03,98.0,189.9,7.59,0.07,98.0,184.9,7.82,-0.24,97.0,185.0,10.36,-0.59,92.0,179.3,16.7,-1.52,89.0,176.0,16.51,-3.79,61.0,86.5,3.28,-7.54,38.0,48.7,6.2,-7.8,20.0,48.9,6.57,-7.66,41.0,0.06,0.06,0.13,0.08,0.22,0.24,0.25,0.33,0.46,0.32,0.36
8/7/2021 2:00 AM,189.2,5.5,0.03,97.0,189.5,6.63,0.04,98.0,194.2,7.03,-0.17,99.0,192.0,9.64,-0.34,98.0,195.3,11.84,-1.68,95.0,178.5,11.44,-2.4,92.0,162.2,12.96,-3.43,89.0,183.1,9.95,-5.03,61.0,123.8,6.48,-6.85,44.0,3.6,4.56,-8.72,31.0,6.0,4.98,-8.73,27.0,0.07,0.09,0.2,0.17,0.36,0.42,0.39,0.42,0.38,0.14,0.23
8/7/2021 2:10 AM,184.5,5.38,0.04,98.0,187.9,5.22,-0.03,99.0,183.0,7.06,-0.2,99.0,186.9,8.26,-0.23,98.0,191.4,10.04,-0.59,97.0,167.6,14.66,-2.22,90.0,175.6,17.88,-3.06,72.0,238.6,10.56,-6.21,39.0,104.6,3.77,-7.36,26.0,327.5,4.24,-8.58,27.0,0.5,4.37,-8.6,31.0,0.07,0.2,0.27,0.2,0.36,0.28,0.27,0.49,0.48,0.44,0.47
8/7/2021 2:20 AM,187.8,5.26,0.04,99.0,192.3,6.01,0.0,99.0,193.2,6.75,0.01,98.0,193.0,7.37,-0.03,98.0,195.5,8.02,-0.05,98.0,199.7,8.53,-0.06,93.0,194.4,8.53,-0.28,88.0,188.9,13.52,-0.6,74.0,252.9,10.43,-3.28,16.0,193.5,15.04,-5.0,7.0,181.5,19.52,-2.7,6.0,0.08,0.06,0.05,0.04,0.06,0.15,0.21,0.22,0.51,0.26,0.29
8/7/2021 2:30 AM,187.6,5.44,0.01,98.0,186.8,5.78,0.03,100.0,190.1,6.01,-0.01,98.0,189.8,6.78,-0.03,98.0,193.0,7.65,0.02,98.0,194.2,8.39,-0.01,95.0,198.8,8.67,-0.13,89.0,196.1,8.85,-0.17,87.0,175.9,20.74,-4.39,3.0,160.6,9.4,-5.32,3.0,91.1,17.19,-5.26,3.0,0.07,0.06,0.06,0.05,0.04,0.13,0.19,0.26,0.19,0.31,0.29
8/7/2021 2:40 AM,194.7,5.22,0.01,98.0,196.7,5.52,-0.01,99.0,193.7,6.43,0.0,98.0,197.8,6.86,-0.01,98.0,196.9,8.08,-0.02,97.0,200.7,8.32,-0.07,96.0,206.8,9.75,-0.27,92.0,177.3,8.67,-1.73,42.0,106.4,9.91,-4.43,10.0,105.1,7.7,-4.32,10.0,70.7,10.0,-5.19,12.0,0.07,0.07,0.05,0.05,0.06,0.08,0.15,0.67,0.45,0.78,0.54
8/7/2021 2:50 AM,196.9,4.76,0.03,97.0,198.3,5.26,0.01,98.0,199.8,5.79,-0.01,97.0,197.9,6.19,0.02,98.0,199.3,7.56,-0.02,97.0,204.5,7.73,-0.25,89.0,217.6,11.05,-1.39,57.0,52.3,6.1,-6.14,16.0,339.1,7.39,-7.29,13.0,131.2,0.99,-6.95,14.0,16.5,3.62,-7.13,19.0,0.07,0.08,0.06,0.06,0.08,0.25,0.32,0.4,0.65,0.56,0.95
8/7/2021 3:00 AM,200.4,4.45,0.06,98.0,202.8,4.87,0.08,99.0,201.7,5.63,0.07,98.0,203.5,6.39,0.06,98.0,202.8,7.2,0.09,97.0,202.3,7.3,0.04,89.0,202.1,11.34,-1.02,10.0,226.1,23.1,-3.28,1.0,110.9,6.89,-6.65,1.0,242.4,4.39,-6.38,3.0,129.0,21.06,-3.88,2.0,0.09,0.07,0.06,0.06,0.05,0.11,0.18,0.09,0.32,0.5,0.11
8/7/2021 3:10 AM,211.5,4.49,-0.01,98.0,213.6,4.92,0.06,98.0,208.4,5.64,0.03,97.0,208.1,5.4,-0.02,98.0,213.5,6.86,-0.06,95.0,215.7,6.98,-0.2,89.0,236.3,8.7,-1.68,61.0,234.0,7.38,-2.17,64.0,228.7,10.86,-3.99,17.0,179.8,3.41,-4.54,30.0,219.9,8.67,-3.84,38.0,0.08,0.08,0.07,0.12,0.15,0.24,0.4,0.46,0.54,0.58,0.38
8/7/2021 3:20 AM,213.5,4.69,0.01,97.0,217.5,5.01,0.01,98.0,216.0,5.46,-0.02,97.0,219.0,5.59,-0.08,97.0,220.2,6.52,-0.11,95.0,224.0,6.91,-0.17,90.0,280.3,13.19,-1.6,19.0,231.7,14.82,-3.73,12.0,199.5,7.82,-4.81,5.0,355.4,20.48,-4.89,4.0,226.5,20.07,-5.44,9.0,0.08,0.08,0.07,0.06,0.09,0.24,0.31,0.35,0.68,0.44,0.46
8/7/2021 3:30 AM,224.1,4.01,-0.04,98.0,229.2,3.69,0.02,97.0,222.8,4.61,-0.04,97.0,224.2,4.59,-0.03,97.0,220.1,5.44,-0.04,95.0,211.0,8.2,-0.36,93.0,201.6,10.32,-0.47,89.0,201.7,9.07,-0.78,81.0,188.7,15.26,-1.97,44.0,189.8,14.25,-4.15,15.0,134.5,16.39,-5.18,7.0,0.09,0.08,0.27,0.16,0.27,0.21,0.29,0.44,0.35,0.33,0.26
8/7/2021 3:40 AM,231.7,4.05,-0.02,99.0,234.1,4.34,0.0,98.0,229.1,4.36,-0.02,97.0,228.4,4.92,-0.07,96.0,224.2,5.12,-0.18,94.0,210.3,7.01,-0.3,91.0,213.5,7.05,-0.53,64.0,213.7,6.75,-0.72,62.0,211.1,7.13,-0.61,44.0,188.2,16.11,-2.67,10.0,96.6,7.18,-2.55,6.0,0.1,0.09,0.17,0.18,0.34,0.37,0.57,0.48,0.36,0.45,0.42
8/7/2021 3:50 AM,230.9,5.2,0.02,99.0,230.8,5.01,0.06,97.0,231.6,5.29,-0.01,97.0,230.5,4.95,-0.11,95.0,223.7,6.43,-0.18,92.0,219.1,7.32,-0.33,91.0,215.1,7.77,-0.35,88.0,191.4,15.17,-1.19,66.0,177.3,9.56,-2.59,34.0,152.4,16.85,-5.12,22.0,124.8,19.81,-5.2,24.0,0.08,0.13,0.14,0.26,0.27,0.22,0.32,0.2,0.71,0.25,0.21
8/7/2021 4:00 AM,224.4,5.26,-0.03,98.0,228.4,5.62,0.02,98.0,218.5,5.36,-0.02,98.0,222.5,5.86,-0.02,96.0,227.2,6.85,-0.07,95.0,221.5,6.88,-0.11,94.0,217.4,7.77,-0.12,89.0,209.9,6.52,-0.42,57.0,174.4,7.36,-1.5,27.0,74.7,6.48,-5.27,19.0,107.7,16.04,-5.19,11.0,0.08,0.08,0.17,0.15,0.15,0.17,0.29,0.4,0.55,0.55,0.15
8/7/2021 4:10 AM,224.8,5.13,-0.02,98.0,230.2,5.31,0.03,98.0,225.2,5.29,-0.04,98.0,225.1,5.53,-0.07,97.0,222.1,6.81,-0.1,95.0,215.3,7.9,-0.22,93.0,219.6,8.06,-0.32,72.0,207.8,14.84,-2.54,31.0,158.3,9.48,-4.77,5.0,296.3,4.94,-6.26,5.0,170.1,4.32,-7.56,6.0,0.08,0.07,0.1,0.13,0.15,0.16,0.32,0.45,0.27,1.3,0.42
8/7/2021 4:20 AM,225.0,4.48,0.01,98.0,231.3,4.78,-0.04,97.0,214.0,5.75,-0.2,97.0,202.2,7.03,-0.43,94.0,206.2,7.11,-0.63,92.0,211.4,5.84,-0.51,91.0,198.1,6.87,-0.69,92.0,177.0,11.31,-2.13,79.0,172.9,6.64,-3.7,41.0,147.9,7.06,-4.13,12.0,126.9,4.09,-4.77,25.0,0.09,0.08,0.17,0.22,0.36,0.34,0.3,0.29,0.54,0.37,0.4
8/7/2021 4:30 AM,231.1,4.94,0.06,99.0,235.4,4.54,0.01,97.0,221.6,4.38,-0.21,96.0,204.7,6.47,-0.49,92.0,208.9,6.78,-0.68,89.0,221.0,7.47,-0.63,89.0,200.2,6.83,-0.66,88.0,195.3,3.82,-1.24,56.0,206.2,8.74,-1.71,57.0,180.1,11.43,-2.36,66.0,176.0,9.82,-3.7,31.0,0.1,0.15,0.3,0.38,0.41,0.3,0.42,5.53,0.63,0.51,0.42
8/7/2021 4:40 AM,237.9,3.99,-0.04,97.0,234.3,3.99,0.01,98.0,227.8,3.71,-0.14,97.0,223.4,4.36,-0.14,96.0,228.6,5.45,-0.15,95.0,221.2,6.21,-0.27,92.0,231.7,5.21,-0.14,88.0,252.1,6.97,-0.57,59.0,226.0,4.47,-1.05,51.0,170.4,2.41,-0.95,19.0,260.3,9.82,-2.18,30.0,0.1,0.12,0.23,0.22,0.14,0.24,0.23,0.22,0.54,1.24,0.29
8/7/2021 4:50 AM,239.2,3.18,0.0,97.0,236.2,2.99,0.03,98.0,233.7,3.25,-0.06,97.0,227.8,3.27,-0.04,97.0,242.5,4.67,-0.41,94.0,241.2,6.35,-0.39,92.0,247.6,5.2,-0.49,90.0,238.8,6.52,-0.53,92.0,243.8,7.52,-0.67,92.0,251.0,7.43,-0.74,89.0,248.4,10.55,-0.85,88.0,0.17,0.15,0.18,0.3,0.29,0.28,0.31,0.3,0.3,0.3,0.22
8/7/2021 5:00 AM,243.1,3.43,-0.01,98.0,242.6,3.46,-0.03,98.0,232.9,3.74,-0.01,96.0,234.7,3.9,0.0,97.0,233.7,4.3,0.01,96.0,228.1,4.99,-0.03,96.0,227.6,5.12,0.0,94.0,224.6,6.06,-0.01,92.0,228.8,5.96,-0.11,93.0,226.1,7.21,-0.15,91.0,220.8,7.78,-0.08,92.0,0.1,0.08,0.07,0.08,0.1,0.12,0.08,0.1,0.18,0.13,0.08
8/7/2021 5:10 AM,235.2,3.8,0.0,98.0,237.1,3.69,-0.05,98.0,227.0,3.99,-0.03,98.0,233.5,4.37,-0.04,97.0,222.8,4.9,-0.01,98.0,219.7,5.34,-0.01,97.0,224.8,5.87,-0.1,96.0,215.6,6.01,-0.22,94.0,215.2,7.08,-0.28,93.0,218.2,7.56,-0.26,93.0,201.7,5.64,-0.25,91.0,0.09,0.1,0.11,0.09,0.11,0.13,0.15,0.35,0.23,0.26,1.0
8/7/2021 5:20 AM,230.9,3.62,-0.02,97.0,231.8,3.74,0.04,97.0,230.0,4.3,-0.02,97.0,234.0,4.09,-0.04,97.0,225.6,4.6,-0.02,98.0,229.7,5.49,-0.06,97.0,225.9,5.92,-0.07,95.0,222.9,6.91,-0.13,94.0,222.1,5.77,-0.21,92.0,223.8,8.34,-0.12,90.0,113.8,2.18,-1.24,35.0,0.1,0.1,0.1,0.11,0.11,0.15,0.23,0.11,0.3,0.29,2.47
8/7/2021 5:30 AM,227.9,3.41,-0.02,97.0,221.6,3.73,0.03,97.0,223.0,3.71,-0.03,96.0,227.4,4.05,0.0,96.0,222.2,5.08,-0.12,96.0,218.1,5.1,0.02,96.0,216.3,6.02,-0.17,95.0,223.8,5.51,-0.16,95.0,220.2,6.6,-0.12,96.0,217.9,9.21,-0.31,95.0,213.2,10.34,-0.57,63.0,0.1,0.15,0.23,0.22,0.22,0.15,0.25,0.21,0.18,0.15,0.25
8/7/2021 5:40 AM,206.7,2.89,0.03,96.0,215.0,3.24,0.11,97.0,213.1,3.61,0.04,96.0,200.1,5.43,-0.35,95.0,196.4,6.64,-0.57,94.0,186.5,8.2,-0.96,91.0,190.9,4.94,-1.02,89.0,195.7,6.84,-1.18,91.0,203.4,7.63,-1.3,91.0,195.1,13.93,-1.4,89.0,176.9,13.33,-2.37,76.0,0.13,0.11,0.19,0.33,0.26,0.32,0.55,0.4,0.31,0.23,0.26
8/7/2021 5:50 AM,226.7,3.55,-0.06,97.0,227.8,3.64,0.03,96.0,220.5,3.78,0.03,96.0,224.1,4.08,-0.01,95.0,233.3,4.95,-0.13,93.0,233.4,5.16,-0.2,92.0,227.9,6.03,-0.18,90.0,240.5,5.8,-0.29,85.0,234.0,7.51,-0.39,70.0,204.8,13.9,-0.83,51.0,256.2,7.61,-2.77,26.0,0.09,0.15,0.16,0.2,0.28,0.23,0.26,0.32,0.27,0.21,1.73
8/7/2021 6:00 AM,227.2,3.04,-0.03,97.0,223.2,3.21,0.1,94.0,233.2,3.95,-0.21,95.0,249.3,6.06,-0.86,89.0,237.9,6.16,-1.86,77.0,217.3,6.88,-1.35,87.0,209.0,3.65,-0.32,94.0,243.3,5.09,-0.35,93.0,243.0,5.93,-0.62,90.0,204.2,7.62,-0.9,87.0,196.4,9.58,-1.26,87.0,0.14,0.11,0.4,0.41,0.63,0.47,0.53,0.38,0.38,0.35,0.45
8/7/2021 6:10 AM,244.4,2.34,0.0,97.0,229.1,3.34,-0.04,95.0,239.5,3.45,-0.14,96.0,228.9,3.26,-0.04,94.0,217.6,4.79,-0.15,96.0,229.1,5.05,-0.22,96.0,235.2,5.66,-0.24,96.0,223.6,6.1,-0.28,96.0,230.5,6.23,-0.24,95.0,221.4,7.34,-0.34,95.0,236.3,7.67,-0.54,91.0,0.15,0.21,0.25,0.28,0.29,0.2,0.16,0.18,0.18,0.2,0.24
8/7/2021 6:20 AM,255.0,2.73,0.05,98.0,247.0,3.52,-0.03,98.0,232.9,3.46,-0.01,97.0,237.8,3.69,0.03,97.0,237.3,4.47,-0.03,98.0,233.0,4.84,-0.02,96.0,236.9,5.44,-0.04,94.0,230.4,5.56,-0.04,92.0,236.1,6.45,-0.12,94.0,232.5,7.53,-0.26,84.0,254.4,10.06,-1.21,23.0,0.15,0.1,0.12,0.09,0.09,0.11,0.13,0.12,0.16,0.21,0.4
8/7/2021 6:30 AM,259.3,2.97,-0.02,97.0,244.8,2.84,0.0,96.0,240.2,3.22,-0.05,97.0,238.5,3.82,-0.04,99.0,236.0,4.49,-0.04,98.0,236.9,5.06,-0.06,96.0,238.9,5.3,-0.04,94.0,235.6,6.61,-0.04,90.0,235.3,7.68,-0.09,63.0,253.1,11.14,-0.85,34.0,272.8,4.76,-3.19,2.0,0.13,0.11,0.07,0.12,0.05,0.09,0.09,0.13,0.19,0.39,0.94
8/7/2021 6:40 AM,243.0,2.94,-0.05,97.0,242.3,3.39,-0.03,98.0,240.0,3.79,-0.05,98.0,239.5,4.18,-0.04,98.0,233.0,4.99,-0.04,99.0,243.2,6.45,-0.18,97.0,241.4,6.73,-0.22,92.0,280.7,15.52,-1.92,25.0,231.4,13.64,-7.63,1.0,,,,,,,,,0.12,0.1,0.07,0.07,0.04,0.12,0.27,0.21,0.1,,
8/7/2021 6:50 AM,240.2,2.9,0.02,98.0,237.0,3.45,0.03,97.0,234.4,3.72,-0.01,98.0,227.1,4.4,-0.04,97.0,224.1,5.2,-0.04,98.0,234.0,5.99,-0.1,97.0,241.0,9.04,-0.99,73.0,277.4,8.59,-4.98,14.0,236.8,6.02,-5.35,15.0,246.5,9.2,-5.65,18.0,214.1,5.12,-5.29,11.0,0.14,0.1,0.07,0.1,0.1,0.15,0.3,0.3,0.42,0.19,0.9
8/7/2021 7:00 AM,242.7,3.53,-0.01,98.0,236.6,3.88,-0.01,98.0,229.6,4.32,-0.08,98.0,233.4,4.82,-0.09,97.0,235.6,5.2,-0.11,98.0,234.7,7.19,-0.31,95.0,245.3,8.86,-2.09,85.0,240.4,7.5,-5.69,47.0,237.8,5.06,-5.91,47.0,248.5,12.93,-4.91,38.0,224.8,7.33,-5.06,42.0,0.11,0.16,0.16,0.15,0.16,0.25,0.39,0.33,0.52,0.4,1.73
8/7/2021 7:10 AM,243.5,3.52,-0.01,99.0,239.5,4.12,-0.04,98.0,237.8,4.47,-0.04,99.0,236.9,4.91,-0.06,99.0,234.6,5.57,-0.08,99.0,239.7,7.4,-0.32,91.0,236.4,3.79,-3.65,37.0,226.0,7.36,-4.81,31.0,264.9,5.88,-6.28,32.0,246.5,4.24,-6.15,27.0,165.7,5.39,-5.28,24.0,0.1,0.1,0.12,0.13,0.15,0.19,0.67,0.42,0.99,1.81,0.4
8/7/2021 7:20 AM,240.3,2.94,0.0,98.0,243.7,3.27,-0.02,98.0,240.5,3.81,-0.07,99.0,238.9,4.22,-0.06,99.0,242.8,4.87,-0.05,99.0,209.4,9.14,-0.58,39.0,179.5,23.23,-2.83,1.0,170.4,16.67,-4.64,1.0,196.8,9.14,-5.77,2.0,219.3,16.45,-5.47,1.0,192.2,24.33,-3.04,2.0,0.12,0.1,0.15,0.1,0.05,0.19,0.18,0.15,0.37,0.27,0.28
8/7/2021 7:30 AM,252.8,2.89,0.0,98.0,255.7,2.61,-0.05,96.0,247.1,2.93,-0.1,97.0,246.3,4.27,-0.1,97.0,247.7,4.49,-0.01,96.0,230.2,17.72,-2.9,59.0,235.3,12.89,-6.39,10.0,245.4,12.76,-6.81,9.0,239.0,14.88,-6.65,10.0,239.4,7.92,-6.58,24.0,243.7,11.21,-6.88,19.0,0.12,0.29,0.32,0.17,0.1,0.18,0.18,0.2,0.18,0.37,0.17
8/7/2021 7:40 AM,256.6,2.13,0.07,97.0,254.6,2.63,-0.02,94.0,227.8,3.06,-0.13,95.0,240.9,3.47,-0.06,93.0,251.3,4.04,-0.04,95.0,250.6,4.05,-0.05,86.0,228.4,9.06,-1.86,30.0,265.7,12.78,-7.25,8.0,214.0,7.77,-7.5,6.0,286.9,8.44,-6.85,4.0,199.3,9.12,-5.65,4.0,0.18,0.18,0.46,0.28,0.25,0.35,0.39,0.19,0.21,0.16,0.33
8/7/2021 7:50 AM,259.5,2.27,0.06,96.0,271.8,2.04,0.02,95.0,247.1,2.27,0.0,92.0,237.7,3.22,-0.14,90.0,248.1,3.96,-0.04,95.0,249.5,4.85,-0.06,96.0,211.6,8.44,-0.47,28.0,201.5,33.37,-1.84,3.0,,,,,164.6,19.07,-4.36,4.0,,,,,0.17,0.63,0.42,0.49,0.07,0.16,0.34,0.26,,0.32,
8/7/2021 8:00 AM,259.2,1.95,-0.01,96.0,246.0,2.51,-0.06,94.0,242.1,2.73,-0.07,96.0,233.0,3.55,-0.13,96.0,247.8,3.87,-0.1,94.0,218.9,6.99,-0.41,92.0,191.3,22.45,-1.7,1.0,,,,,,,,,,,,,,,,,0.2,0.25,0.21,0.2,0.25,0.15,0.05,,,,
8/7/2021 8:10 AM,237.5,1.57,0.0,98.0,249.3,2.66,-0.05,96.0,241.3,3.03,-0.02,96.0,248.5,3.21,-0.03,96.0,253.1,3.69,-0.03,95.0,256.5,4.25,-0.03,97.0,254.7,5.03,-0.03,91.0,203.9,27.33,-3.49,2.0,225.2,25.61,-3.16,5.0,223.6,28.83,-1.89,10.0,240.1,19.94,-1.72,3.0,0.26,0.11,0.1,0.06,0.08,0.07,0.15,0.16,0.22,0.16,0.15
8/7/2021 8:20 AM,246.8,1.44,-0.01,97.0,242.2,2.86,-0.06,96.0,240.7,3.15,-0.08,98.0,241.2,3.54,-0.1,98.0,246.0,3.91,-0.04,98.0,248.7,5.34,-0.06,92.0,262.6,8.81,-0.12,46.0,255.5,6.26,0.19,42.0,236.9,11.76,-0.21,46.0,231.4,8.95,0.3,33.0,248.3,13.3,-0.43,34.0,0.34,0.1,0.09,0.13,0.07,0.32,0.41,0.52,0.45,1.74,0.36
8/7/2021 8:30 AM,206.1,1.58,0.02,97.0,226.3,2.48,0.04,97.0,237.9,2.94,-0.02,98.0,236.9,3.23,0.0,98.0,251.4,3.9,0.04,96.0,288.9,4.03,-0.02,82.0,309.9,6.13,-1.19,44.0,345.2,4.18,-1.72,40.0,290.6,3.53,-1.47,35.0,33.0,10.93,-2.09,39.0,319.2,7.32,-1.74,44.0,0.26,0.14,0.1,0.08,0.19,0.59,2.5,3.45,0.66,0.85,1.32
8/7/2021 8:40 AM,212.5,2.08,-0.05,96.0,217.4,2.48,0.03,95.0,215.9,3.18,-0.04,96.0,222.1,3.08,-0.03,96.0,234.1,3.65,-0.06,98.0,238.4,4.77,-0.23,95.0,162.1,10.71,-1.29,62.0,145.3,6.29,-2.19,45.0,145.4,8.18,-1.72,27.0,123.5,15.19,-2.28,28.0,130.9,15.54,-2.01,39.0,0.19,0.18,0.2,0.2,0.07,0.27,0.34,0.52,0.45,0.38,0.28
8/7/2021 8:50 AM,218.1,2.45,-0.03,98.0,229.8,2.86,-0.03,95.0,222.2,3.38,-0.07,95.0,232.1,3.64,-0.07,96.0,234.5,3.81,-0.06,98.0,236.5,4.43,-0.24,94.0,132.7,5.57,-1.3,38.0,117.1,10.45,-2.34,37.0,116.9,18.74,-1.82,30.0,99.0,11.79,-2.1,42.0,275.9,5.01,-2.88,36.0,0.16,0.13,0.19,0.15,0.06,0.49,0.76,0.42,0.23,0.46,3.75
8/7/2021 9:00 AM,224.2,1.96,-0.04,98.0,230.5,2.66,-0.02,96.0,230.1,3.06,-0.02,97.0,243.2,3.69,-0.13,98.0,238.6,3.51,-0.13,98.0,208.2,3.19,-0.82,52.0,269.2,12.49,-7.91,1.0,137.0,15.86,-5.22,14.0,264.7,4.76,-8.62,2.0,233.8,10.1,-8.03,5.0,9.2,9.52,-6.04,7.0,0.2,0.11,0.16,0.17,0.29,2.18,0.2,0.32,0.38,0.67,0.74
8/7/2021 9:10 AM,219.1,2.01,-0.06,95.0,231.6,2.5,-0.04,97.0,223.9,2.86,-0.02,96.0,229.0,3.18,-0.07,97.0,236.7,3.73,-0.07,98.0,186.8,5.93,-2.2,49.0,130.9,10.17,-5.97,29.0,109.3,4.29,-6.79,18.0,199.7,2.33,-7.03,23.0,163.9,3.05,-6.76,25.0,102.2,7.85,-6.35,21.0,0.19,0.22,0.35,0.21,0.16,0.61,0.56,0.42,0.49,0.5,0.45
8/7/2021 9:20 AM,230.8,1.49,-0.06,95.0,242.4,2.34,-0.09,97.0,254.4,2.89,-0.19,96.0,239.1,3.2,-0.17,97.0,237.8,3.2,-0.11,98.0,215.7,4.67,-0.6,64.0,266.8,13.54,-4.39,19.0,75.5,6.99,-5.7,19.0,56.6,3.49,-6.27,6.0,116.3,1.17,-5.57,20.0,37.3,11.89,-5.76,7.0,0.26,0.28,0.44,0.28,0.17,0.41,1.4,0.39,0.58,0.97,0.27
8/7/2021 9:30 AM,275.0,0.48,-0.02,95.0,233.1,1.05,-0.31,86.0,275.9,0.85,-0.23,92.0,226.4,2.24,-0.19,93.0,243.7,2.19,-0.14,94.0,153.7,4.62,-3.03,47.0,147.4,4.54,-6.14,19.0,141.1,7.7,-5.3,21.0,102.9,1.61,-4.61,29.0,141.0,7.21,-5.64,16.0,174.2,4.14,-6.58,16.0,0.94,1.17,0.93,0.61,0.47,0.81,4.62,0.59,2.26,0.43,0.76
8/7/2021 9:40 AM,272.4,1.27,0.14,93.0,286.5,3.39,-0.5,91.0,308.8,3.79,-0.77,69.0,320.3,4.19,-0.97,85.0,1.4,2.64,-0.89,90.0,2.4,5.28,-6.16,23.0,74.5,3.07,-5.61,19.0,347.3,3.45,-6.45,29.0,352.8,11.53,-5.94,29.0,327.5,2.79,-6.61,16.0,319.4,2.86,-6.48,22.0,0.44,0.41,0.55,0.5,0.68,0.73,0.48,0.49,0.24,0.33,0.54
8/7/2021 9:50 AM,20.6,1.12,-0.11,94.0,241.5,1.97,-0.09,94.0,273.0,2.78,-0.25,93.0,260.0,2.52,-0.22,93.0,243.5,2.65,-0.05,96.0,49.5,9.31,-3.67,6.0,133.9,2.76,-7.92,5.0,308.2,4.3,-7.92,9.0,8.5,2.06,-8.04,5.0,189.3,1.31,-8.36,3.0,235.0,6.7,-7.2,3.0,0.97,0.34,0.46,0.65,0.16,0.51,1.83,0.2,0.44,0.37,0.41
8/7/2021 10:00 AM,162.4,0.55,-0.03,96.0,243.8,1.48,-0.15,94.0,248.2,2.03,-0.1,94.0,240.0,2.14,-0.1,94.0,232.7,2.44,-0.05,97.0,243.1,3.18,-0.06,94.0,62.9,13.88,-4.85,13.0,122.8,4.52,-4.01,10.0,12.6,19.55,-3.25,13.0,353.7,9.4,-6.19,4.0,3.7,17.92,-5.68,2.0,1.28,0.65,0.52,0.34,0.24,0.31,0.71,1.45,0.3,0.33,0.18
8/7/2021 10:10 AM,211.9,1.45,-0.06,96.0,223.0,2.4,-0.07,96.0,228.1,2.95,-0.03,95.0,224.4,2.56,-0.07,96.0,230.8,3.85,-0.14,98.0,256.5,4.29,-0.21,91.0,87.9,10.19,2.42,23.0,50.0,7.46,1.09,29.0,344.0,13.87,1.09,25.0,12.0,26.22,-3.02,32.0,70.1,7.26,-0.6,21.0,0.39,0.21,0.2,0.19,0.24,0.54,0.55,2.16,0.56,0.52,0.56
8/7/2021 10:20 AM,212.5,2.23,-0.07,96.0,208.6,2.39,-0.01,96.0,221.5,1.87,-0.15,96.0,156.8,1.74,0.0,90.0,41.6,6.53,-0.44,44.0,135.1,24.41,-0.52,15.0,153.1,27.51,-3.41,15.0,72.5,27.52,-1.44,14.0,117.6,26.71,-2.62,16.0,119.6,23.6,-1.36,23.0,159.3,20.95,0.09,25.0,0.31,0.27,0.42,1.1,0.86,0.41,0.42,0.52,0.54,0.73,1.25
8/7/2021 10:30 AM,210.7,2.3,-0.09,95.0,212.8,2.67,-0.01,96.0,220.0,2.97,-0.04,95.0,207.9,2.94,-0.08,94.0,141.7,2.2,-1.25,63.0,123.2,22.78,-0.65,20.0,34.7,12.86,-0.95,14.0,129.9,16.49,-0.11,32.0,151.6,14.75,-1.91,27.0,17.5,12.57,-0.88,31.0,190.3,15.32,-1.86,34.0,0.21,0.13,0.24,0.55,3.09,0.42,0.92,0.76,0.47,0.65,0.61
8/7/2021 10:40 AM,218.1,2.92,-0.06,97.0,211.3,2.8,0.02,96.0,221.6,3.22,-0.02,96.0,235.1,3.74,-0.14,96.0,216.0,8.68,-0.21,88.0,205.5,5.85,-1.23,59.0,117.8,10.18,-1.78,39.0,74.9,13.39,-1.49,34.0,21.5,4.2,-2.14,46.0,212.3,16.74,0.49,50.0,215.3,10.35,-1.5,41.0,0.14,0.14,0.1,0.16,0.44,0.95,0.49,1.46,1.68,0.7,0.5
8/7/2021 10:50 AM,220.2,2.72,-0.05,96.0,218.0,2.06,-0.09,96.0,210.1,2.55,-0.01,94.0,215.5,3.02,-0.03,95.0,242.8,2.98,-0.06,92.0,334.1,10.11,-0.01,40.0,112.9,9.23,-0.72,44.0,253.6,4.91,-0.95,33.0,314.7,10.39,-3.04,31.0,160.5,6.43,-2.03,36.0,299.3,3.93,-2.11,33.0,0.17,0.35,0.21,0.2,0.99,0.55,3.02,0.97,3.48,0.58,0.68
8/7/2021 11:00 AM,221.1,2.14,0.0,96.0,226.6,2.09,-0.12,96.0,212.1,2.95,0.0,95.0,232.1,2.82,-0.07,96.0,223.7,2.03,0.03,95.0,104.2,4.98,-0.76,44.0,119.5,13.51,-1.18,38.0,91.1,20.5,0.27,38.0,126.2,15.61,-1.56,32.0,157.1,14.86,-0.07,46.0,116.5,6.13,-0.18,52.0,0.21,0.45,0.13,0.22,0.97,0.48,0.49,0.36,0.44,0.41,1.07
8/7/2021 11:10 AM,210.5,2.84,0.0,97.0,210.4,2.45,-0.08,96.0,224.3,2.53,-0.05,95.0,205.1,2.66,0.03,94.0,218.4,3.59,-0.09,93.0,324.7,2.82,-0.81,72.0,307.5,7.05,-0.52,51.0,150.7,12.67,0.97,45.0,242.0,10.76,0.2,28.0,163.0,11.05,0.81,36.0,150.4,19.3,-0.31,45.0,0.14,0.38,0.2,0.24,0.44,1.31,0.9,0.74,7.27,0.48,0.35
8/7/2021 11:20 AM,207.3,2.69,0.04,98.0,196.6,2.86,0.07,96.0,194.2,3.29,0.11,96.0,205.4,3.45,0.09,97.0,200.6,3.72,0.01,95.0,194.5,5.25,0.2,88.0,192.8,5.58,0.4,25.0,87.8,14.91,0.0,14.0,243.8,13.37,-0.48,10.0,91.3,17.17,-1.77,25.0,206.3,11.5,-0.55,10.0,0.13,0.13,0.11,0.34,0.36,0.4,1.0,0.67,0.5,0.57,1.22
8/7/2021 11:30 AM,200.4,2.91,0.01,98.0,186.6,3.14,0.05,97.0,193.7,3.87,0.06,97.0,192.2,4.02,0.07,95.0,192.8,3.11,-0.06,93.0,269.1,2.15,-0.57,62.0,80.9,9.83,-0.82,29.0,186.2,11.51,-0.85,21.0,91.8,10.51,-2.0,33.0,172.6,7.27,-1.59,32.0,133.1,19.96,-2.02,32.0,0.13,0.14,0.1,0.15,0.78,1.93,0.37,0.78,3.19,0.37,0.49
8/7/2021 11:40 AM,195.4,2.85,0.0,96.0,190.0,3.96,0.04,96.0,190.3,4.07,-0.02,97.0,191.9,4.67,-0.06,96.0,191.2,5.24,-0.16,91.0,168.6,5.02,-0.17,87.0,169.0,4.02,-0.16,88.0,143.8,8.06,-1.6,45.0,127.0,19.91,-0.22,49.0,126.3,21.58,0.63,46.0,154.9,15.01,0.33,50.0,0.16,0.08,0.09,0.21,0.7,0.59,0.65,0.47,0.47,0.85,0.71
8/7/2021 11:50 AM,192.6,3.5,-0.04,97.0,193.9,3.71,-0.05,96.0,182.3,3.68,0.04,97.0,200.9,3.21,-0.02,96.0,198.5,4.45,0.01,96.0,212.2,4.65,-0.2,81.0,255.1,5.83,0.13,40.0,165.9,13.17,2.38,39.0,193.9,11.77,1.62,29.0,268.9,6.68,0.28,22.0,228.8,16.06,1.64,31.0,0.14,0.22,0.13,0.33,0.27,0.52,3.82,0.53,0.59,0.58,0.56
8/7/2021 12:00 PM,187.6,3.41,-0.19,97.0,191.0,3.62,-0.15,96.0,190.9,4.21,-0.05,96.0,186.7,4.1,-0.01,96.0,188.3,4.23,0.0,96.0,199.1,4.54,-0.08,95.0,253.8,6.54,0.03,54.0,202.0,13.13,-0.92,26.0,225.0,5.35,-0.38,20.0,188.8,10.96,-0.69,26.0,81.4,15.51,-1.92,29.0,0.17,0.14,0.1,0.16,0.13,0.39,1.21,0.86,2.18,0.57,1.4
8/7/2021 12:10 PM,184.5,3.76,0.08,99.0,186.6,4.0,0.14,98.0,187.1,3.82,0.1,99.0,187.2,3.73,0.1,98.0,189.0,3.72,0.1,97.0,190.7,4.35,-0.03,96.0,194.9,4.86,-0.01,91.0,357.8,0.45,-1.11,53.0,81.8,8.34,-2.46,30.0,221.5,10.87,-2.72,8.0,71.4,12.07,-2.23,27.0,0.15,0.13,0.21,0.18,0.1,0.17,0.34,2.86,1.17,0.6,0.45
8/7/2021 12:20 PM,188.1,4.4,0.06,98.0,188.0,4.27,0.13,98.0,189.0,4.54,0.08,98.0,175.8,4.77,0.18,98.0,187.6,4.27,0.12,97.0,191.9,5.05,0.07,96.0,186.4,5.18,0.15,94.0,167.6,5.14,0.21,92.0,179.7,5.64,0.2,80.0,80.5,9.73,1.06,37.0,54.8,8.48,-1.11,27.0,0.13,0.13,0.12,0.16,0.2,0.13,0.36,0.45,0.77,1.75,0.76